Wind_Speed
24 23 25 25 26 24 24 23 22 23 22 22 21 21 23 22 19 18 20 20 18 19 20 21 20 17 16 18 16 15 15 15 13 11 7 7 9 9 10 11 11 11 9 8 7 7 7 8 8 8 8 8 8 9 10 12 12 11 11 11 11 9 8 5 5 9 8 6 8 8 6 5 5 3 3 2 1 1 4 7 6 5 6 6 5
24 24 27 27 27 24 25 24 23 24 24 22 22 22 23 21 18 17 18 20 19 20 20 21 21 18 18 17 16 15 14 13 12 11 8 7 9 9 9 10 10 9 8 7 6 6 8 7 7 7 7 6 7 8 9 10 10 9 10 10 9 8 8 5 5 7 8 7 6 5 4 3 2 3 4 3 2 4 3 6 5 5 7 7 6
25 25 28 27 26 25 25 24 24 26 25 23 22 22 21 20 18 16 18 20 20 21 19 20 20 19 19 17 16 15 13 12 11 12 11 8 8 9 9 9 9 8 8 8 6 6 7 7 6 6 7 6 7 8 8 9 9 8 9 8 7 7 7 6 3 6 8 8 6 5 4 3 2 4 3 3 5 3 4 5 3 5 7 7 6
27 26 27 28 27 26 26 25 26 26 25 24 23 21 20 19 19 17 19 20 20 19 18 19 19 18 18 18 16 14 13 13 12 13 12 9 8 9 10 9 9 8 8 8 7 6 6 7 7 6 7 7 7 8 8 8 9 9 8 6 6 7 8 8 5 5 8 7 6 5 4 3 2 3 5 7 9 8 8 6 2 3 5 4 4
29 27 27 29 29 27 26 26 26 25 25 26 23 22 21 20 19 18 19 20 19 18 17 18 18 17 18 19 18 15 14 14 14 13 11 10 9 9 10 9 9 9 8 7 7 6 6 6 7 6 7 8 8 9 8 8 8 8 7 6 7 8 9 9 6 5 7 5 5 4 3 2 3 4 6 8 8 8 8 4 2 1 5 5 4
29 27 27 29 30 27 26 27 25 25 26 26 24 23 22 22 20 18 19 20 18 18 17 17 18 17 18 19 18 16 15 15 13 12 10 9 9 8 9 9 9 9 8 7 6 6 6 6 6 7 8 9 8 8 7 7 8 6 6 6 7 9 8 7 7 7 6 5 5 4 2 2 3 4 5 5 5 6 6 3 1 1 3 4 4
28 26 28 29 30 28 28 27 25 25 26 25 24 23 21 22 21 19 20 20 18 17 16 16 16 15 15 16 16 14 14 14 12 10 9 9 8 8 9 9 8 8 7 6 6 6 6 6 6 7 8 8 8 8 7 7 7 5 4 5 6 8 7 6 6 6 7 7 4 1 1 2 2 2 3 4 2 3 4 2 1 1 2 3 3
29 27 28 29 30 29 29 27 24 23 24 24 23 23 21 21 22 20 19 20 18 16 15 15 15 15 15 15 15 14 13 13 11 11 11 10 9 7 8 10 9 8 7 6 6 6 6 6 7 7 7 7 7 8 6 6 6 4 4 4 5 7 7 6 7 6 6 6 4 2 1 1 1 1 1 2 2 2 4 4 2 2 3 2 2
30 28 28 30 31 29 27 26 24 23 24 23 23 24 22 20 22 21 19 19 18 17 16 14 15 17 16 16 16 14 14 13 12 12 12 11 11 9 8 10 10 9 8 6 6 7 7 6 6 7 7 7 7 7 5 4 4 5 4 3 4 7 8 7 8 7 5 6 6 5 3 3 3 3 3 3 2 2 3 3 3 4 4 3 4
30 29 29 30 30 28 27 26 24 23 23 23 23 25 23 20 22 22 20 20 19 18 18 16 16 16 15 15 15 15 15 15 13 13 13 12 12 10 9 10 10 9 8 6 7 7 7 7 6 7 8 7 6 6 5 4 4 5 5 4 4 6 8 8 8 8 6 5 4 5 5 5 6 6 5 5 5 3 3 4 5 6 5 4 4
29 28 28 30 30 27 27 26 25 25 24 24 24 25 23 20 22 23 20 19 19 19 19 18 17 16 15 15 15 16 16 16 16 14 14 14 13 11 10 9 9 9 8 7 7 7 7 7 6 7 7 7 7 7 5 5 5 5 6 6 5 5 7 7 8 7 6 5 2 3 4 5 6 7 6 6 7 5 4 4 5 5 5 5 5
31 28 27 30 30 28 28 26 25 27 26 25 26 25 23 21 21 23 22 20 19 20 19 18 18 17 16 16 16 15 15 17 16 13 13 14 13 11 10 9 9 9 9 8 8 7 7 7 7 7 7 7 7 7 7 6 5 5 5 6 5 5 6 7 7 7 6 5 2 3 3 4 6 7 7 8 7 7 5 5 5 5 5 5 7
31 30 27 30 32 30 29 27 27 29 27 27 29 27 24 22 22 24 24 21 19 19 19 19 18 18 17 17 16 14 14 16 14 11 11 11 11 10 10 10 9 8 9 8 7 7 7 6 6 7 6 6 6 6 8 7 6 6 5 5 5 5 6 6 6 7 7 5 1 3 3 5 6 7 8 8 7 6 6 6 5 6 7 7 7
31 32 28 30 33 32 30 28 28 30 29 28 29 28 25 23 23 24 24 22 20 19 20 19 18 18 17 16 16 14 13 14 13 11 12 11 11 10 9 9 8 7 7 7 5 6 7 5 5 5 5 5 6 6 7 7 7 8 6 5 5 4 5 7 6 6 6 5 2 4 5 5 4 5 6 6 6 6 6 7 7 8 9 10 9
29 33 31 30 32 32 31 29 28 29 30 30 29 27 25 23 24 25 24 23 21 20 20 19 18 17 16 16 16 14 12 12 13 12 12 12 11 9 8 8 8 7 8 7 5 6 6 5 5 4 4 6 6 6 7 7 7 8 6 5 5 5 5 6 6 7 7 6 4 5 7 6 4 2 3 4 4 5 4 5 8 8 8 9 10
28 32 31 31 31 31 31 31 29 28 30 30 29 27 25 24 23 24 25 23 21 21 20 19 18 17 16 16 15 14 13 12 13 12 12 11 9 9 8 8 7 8 9 7 6 5 5 5 5 4 4 5 6 6 7 7 7 8 7 6 6 6 6 6 7 7 7 5 4 4 6 7 5 4 4 4 3 4 5 6 8 7 8 10 11
29 31 31 32 32 30 30 32 31 29 29 29 30 28 26 24 23 24 25 24 21 20 20 19 18 17 16 15 15 14 14 14 13 12 11 11 9 8 8 8 7 7 8 7 6 5 6 6 5 5 6 6 6 6 6 7 7 7 7 6 7 8 7 6 6 7 8 6 4 6 6 6 6 7 6 5 3 4 6 7 8 8 9 11 11
30 33 32 32 32 31 31 31 32 31 29 28 29 28 27 24 22 23 25 25 22 20 20 20 19 18 16 16 15 15 14 14 13 12 11 10 9 8 8 8 8 6 6 7 7 6 6 6 6 6 7 6 6 6 6 6 6 6 7 6 7 8 7 6 5 7 9 8 5 6 5 5 7 7 7 6 4 5 6 6 7 8 9 8 9
29 32 32 31 32 32 32 32 32 31 29 29 27 26 26 25 22 23 24 23 22 20 19 19 19 18 17 15 15 15 14 14 13 13 13 12 11 10 10 8 8 7 7 7 7 6 6 6 6 6 6 6 6 6 6 6 6 6 6 6 6 7 7 6 6 6 8 8 6 6 6 7 8 8 6 5 4 5 6 6 7 8 8 8 9
27 28 26 29 31 29 30 33 32 30 29 29 27 25 25 25 22 21 23 23 22 21 19 19 19 18 17 16 15 15 14 14 13 13 13 13 13 12 10 8 7 7 7 7 6 6 6 6 6 6 7 6 6 6 6 6 6 7 6 6 7 7 6 7 6 6 8 9 7 8 10 10 11 10 8 6 6 7 8 7 7 8 8 9 9
24 27 23 26 29 26 27 31 30 30 29 28 28 27 25 25 22 20 22 23 23 22 20 19 19 18 17 16 16 16 15 14 13 11 11 12 12 11 9 8 7 5 5 6 6 6 6 5 4 5 6 5 5 6 6 6 6 6 6 7 7 6 5 6 6 6 8 9 9 10 11 11 11 11 10 9 9 8 9 9 7 7 9 10 10
24 30 27 26 26 25 27 30 28 29 30 28 29 28 25 25 22 19 21 23 23 22 21 19 18 18 17 15 15 16 16 15 13 12 10 11 13 12 10 9 8 7 7 6 6 6 6 6 4 5 5 4 5 6 6 5 5 6 6 7 7 6 5 5 5 6 7 8 10 11 10 9 8 8 7 8 9 9 10 11 8 7 8 9 8
26 27 29 29 25 23 27 29 27 28 29 28 29 28 25 23 21 19 20 22 22 21 20 18 17 18 18 17 16 16 17 18 17 15 13 12 12 11 10 10 10 9 8 7 7 6 6 7 7 7 7 6 6 7 7 5 5 6 7 7 7 6 5 5 6 6 6 7 9 9 9 8 6 6 6 7 9 9 9 9 7 7 8 8 8
25 25 29 33 29 25 28 29 28 28 28 29 30 29 26 23 21 22 22 21 21 22 21 19 16 16 18 18 17 15 16 18 19 17 15 13 12 10 10 11 11 11 9 9 9 8 8 9 9 9 9 8 9 9 8 7 7 8 7 7 7 7 7 7 6 6 6 6 7 7 7 6 5 6 8 8 9 8 7 7 7 7 8 8 8
24 26 28 31 31 29 29 30 31 31 30 30 30 28 27 27 24 24 24 22 23 23 23 21 18 16 17 18 17 16 16 17 17 17 15 13 12 11 11 11 11 11 11 11 12 10 9 10 11 11 11 12 12 11 10 10 9 8 7 7 7 8 8 8 8 7 7 8 9 9 8 7 7 8 9 8 8 8 8 9 9 8 6 6 7
24 26 28 30 31 30 29 30 32 32 30 30 30 28 28 29 26 25 26 25 25 23 22 21 20 19 19 18 18 18 18 18 18 18 17 14 13 12 11 11 10 10 10 11 13 12 11 11 12 12 12 12 13 13 12 12 10 9 8 8 8 8 8 8 9 9 9 9 9 9 9 8 8 9 8 8 7 7 7 7 7 6 6 7 9
24 25 28 32 32 28 27 29 30 30 29 28 29 29 29 28 26 25 26 27 26 24 22 21 21 21 21 21 20 20 20 19 19 20 19 18 17 15 14 13 12 12 11 11 13 13 13 13 12 12 11 12 12 13 13 12 11 10 10 10 10 9 8 9 10 10 10 9 10 12 12 9 8 9 8 8 8 8 7 6 5 6 8 10 11
21 23 26 31 31 28 28 30 29 28 28 27 28 28 28 28 27 25 25 27 28 27 25 24 22 22 23 22 19 18 17 17 17 18 19 19 20 20 18 15 14 13 13 13 13 13 12 13 13 13 12 11 11 13 13 13 12 11 12 12 11 10 10 11 11 10 12 12 12 13 14 12 10 9 10 9 9 8 8 8 8 9 11 12 13
14 15 17 22 25 25 27 30 28 28 28 27 27 26 25 26 26 24 23 22 24 26 26 25 24 22 22 21 19 17 16 15 15 16 17 19 20 20 21 19 16 15 15 14 15 14 12 10 12 14 13 12 11 12 13 14 12 11 11 12 12 12 12 12 11 11 14 14 11 11 13 12 10 9 11 11 9 8 10 11 11 12 14 16 16
10 13 16 18 20 19 21 24 25 25 26 25 26 26 25 25 24 22 20 19 21 24 25 25 24 21 20 20 21 21 20 18 17 17 17 18 19 19 21 23 20 17 16 16 15 16 15 13 11 12 14 14 15 14 14 13 11 9 9 10 11 12 12 12 11 11 14 14 12 11 12 11 10 11 12 12 10 10 12 13 13 15 16 16 14
14 16 18 20 21 19 17 17 17 17 18 21 24 25 24 24 22 20 20 20 21 22 22 23 22 20 19 21 21 22 22 21 20 20 19 19 19 19 19 21 23 21 20 19 17 16 17 18 17 15 14 14 15 16 15 14 11 9 10 10 10 11 11 11 10 9 10 11 11 12 12 11 11 11 12 12 12 11 11 12 14 15 15 12 10
18 20 19 19 20 19 17 15 13 14 16 17 19 20 20 20 20 18 18 19 20 21 21 20 19 19 20 21 19 19 20 21 21 22 21 21 21 21 19 18 21 22 22 22 21 19 19 20 21 21 19 16 15 16 16 15 12 11 11 12 12 12 12 12 12 11 11 10 11 11 11 11 11 12 12 12 11 11 12 12 12 13 12 10 10
21 22 21 19 18 17 16 16 15 15 15 15 15 15 15 17 18 16 15 15 14 15 16 16 15 17 18 17 16 16 19 21 22 23 23 23 23 23 22 20 20 22 23 23 24 24 24 23 23 24 24 22 19 16 15 15 14 12 11 13 14 14 15 15 16 16 15 15 15 14 12 11 11 12 13 12 11 11 12 12 12 13 13 11 10
18 20 20 20 20 17 16 16 15 14 14 15 15 15 14 14 15 15 15 14 14 14 13 13 14 16 17 17 16 16 17 19 20 21 22 22 23 24 25 24 23 24 24 24 24 25 26 26 25 24 25 25 23 20 17 16 16 14 14 15 15 16 17 18 18 18 18 18 18 17 16 14 13 13 13 13 12 11 11 11 12 13 12 12 12
19 21 22 22 21 18 15 14 13 12 11 11 12 12 11 11 12 12 13 14 14 15 15 16 18 19 19 19 18 18 18 18 19 19 20 22 24 26 26 26 26 26 26 26 26 25 26 27 26 24 25 25 25 25 23 20 18 17 15 16 17 18 19 19 19 20 20 20 19 18 18 17 16 14 14 13 12 11 12 12 12 13 14 14 14
19 19 19 18 16 12 9 8 8 9 9 8 9 9 9 9 9 10 12 13 12 12 13 15 16 17 18 19 20 20 20 20 20 20 21 22 24 25 27 27 28 28 28 28 28 28 29 30 30 29 29 27 26 26 26 24 22 19 17 16 18 19 19 20 20 21 21 21 19 19 18 18 16 15 14 13 12 12 13 13 14 15 15 14 14
16 15 14 13 11 8 7 6 7 7 7 8 8 9 10 11 12 13 14 14 13 11 11 12 13 14 15 17 18 19 20 20 20 20 21 21 21 21 22 22 23 25 26 28 29 28 28 28 28 29 32 31 29 28 27 26 25 22 19 19 19 19 19 20 20 20 20 20 19 19 19 18 16 15 15 15 15 14 14 14 15 16 16 16 16
14 14 15 14 12 11 11 10 10 10 9 9 10 11 12 12 12 12 12 11 10 9 9 10 11 13 14 15 16 18 18 19 19 19 19 19 18 18 19 20 21 22 23 24 25 24 24 25 25 25 29 31 31 30 29 27 26 23 21 19 19 19 19 19 19 19 18 18 19 19 19 18 17 17 17 16 16 15 15 16 17 17 17 17 18
12 15 17 18 17 16 15 14 14 14 13 12 12 12 12 11 10 8 7 7 6 7 7 8 9 9 10 11 12 13 14 14 14 14 14 14 14 15 17 19 20 21 21 21 21 21 22 23 24 24 25 29 31 31 30 28 26 24 21 19 18 17 17 17 18 17 17 17 17 18 19 19 18 18 17 17 16 16 17 18 18 18 18 18 19
14 17 18 19 18 16 15 15 14 13 13 12 12 12 12 11 11 9 8 7 7 6 6 6 6 6 5 6 7 8 9 9 7 6 7 10 11 11 12 12 12 13 15 15 16 17 17 18 20 22 24 27 28 29 29 28 26 23 22 20 18 17 16 15 15 15 16 16 17 17 18 18 18 18 18 17 17 17 16 16 17 17 17 18 18
15 16 16 15 15 15 15 14 13 11 10 10 10 11 11 11 11 10 10 9 8 7 6 6 6 5 4 4 4 4 4 5 5 7 7 8 6 5 5 4 4 4 4 4 4 3 3 3 7 11 17 21 22 21 22 23 21 19 18 18 17 16 15 14 13 14 15 16 16 16 16 16 17 17 16 15 14 14 13 14 15 16 17 17 16
14 13 14 15 15 15 15 13 11 10 9 10 11 12 12 12 12 11 11 10 9 7 6 6 6 6 6 6 6 6 6 7 8 9 8 7 5 2 2 3 3 2 2 3 4 5 8 7 6 5 7 12 13 13 14 15 15 14 13 14 15 14 14 13 13 14 14 15 16 15 14 14 14 14 14 14 13 13 13 12 13 13 14 14 14
13 13 14 16 16 15 14 12 11 10 11 11 11 12 13 13 13 12 12 11 10 10 9 8 8 8 8 9 9 9 8 7 7 6 5 4 2 1 4 7 9 8 8 7 7 7 9 9 9 8 6 5 6 7 8 9 10 10 10 11 12 12 12 12 13 14 15 15 14 13 11 10 10 10 10 11 12 13 13 12 12 11 12 12 12
15 14 14 14 14 12 10 9 9 10 10 9 9 10 11 12 13 12 11 10 10 10 10 11 11 11 11 11 10 10 10 9 9 8 5 3 3 4 4 6 9 12 12 10 8 8 7 7 7 6 5 4 4 4 4 5 6 6 7 7 8 9 10 10 11 12 13 13 11 10 9 9 9 9 9 8 9 10 10 10 10 10 10 10 9
16 15 13 12 10 8 8 8 9 9 9 9 8 8 9 10 10 10 10 10 10 9 8 9 10 11 13 13 12 11 10 9 8 8 7 6 5 4 4 5 7 10 11 10 9 8 6 5 5 5 5 6 6 5 3 4 6 6 6 5 5 7 8 9 10 10 10 9 9 8 9 10 11 11 11 9 8 7 6 7 7 6 6 5 4
14 13 12 10 7 7 9 11 10 9 9 9 9 8 8 9 9 9 10 11 11 10 9 9 10 10 12 13 13 11 9 7 6 7 6 5 4 3 3 4 5 8 9 8 9 9 9 9 7 5 4 5 5 3 3 6 7 7 6 4 4 5 7 9 9 10 10 10 10 10 12 13 13 12 9 6 3 2 2 2 1 1 0 1 3
12 11 11 10 8 6 8 10 9 9 9 9 9 9 8 9 9 9 11 12 12 11 10 10 10 11 11 12 11 9 7 5 4 4 4 2 1 1 4 4 4 6 7 7 7 8 8 8 6 3 1 2 1 1 1 4 5 3 2 1 3 4 6 9 10 12 13 13 12 12 13 11 7 4 1 2 3 3 3 4 4 3 3 3 4
10 9 10 9 7 5 7 8 7 7 7 8 9 9 8 9 9 8 9 11 13 12 10 8 9 10 10 8 7 4 4 3 2 2 2 1 1 1 3 3 4 5 6 5 6 7 7 5 4 2 1 2 2 3 2 2 2 1 1 2 3 4 6 8 9 10 11 11 9 9 8 5 5 6 6 5 3 2 4 5 3 1 0 1 1
10 9 10 10 6 4 6 5 5 6 6 6 7 8 8 8 8 7 7 9 11 11 7 4 6 7 5 4 4 4 4 3 2 2 2 2 2 1 1 1 0 2 4 5 6 8 8 7 6 5 5 4 4 5 5 3 1 1 2 4 5 5 5 6 6 7 7 6 5 5 6 7 7 6 5 3 2 3 5 5 4 3 3 2 2
11 10 11 10 7 5 6 5 5 6 6 6 6 7 7 7 6 6 6 8 9 10 8 6 6 6 5 4 3 3 5 5 4 3 3 4 5 5 5 4 4 4 5 6 7 8 9 9 9 9 9 8 8 8 7 6 5 4 3 5 7 7 6 6 6 5 4 3 3 3 5 7 6 3 2 3 3 3 3 4 4 4 5 5 5
10 9 10 10 8 7 7 6 5 4 4 5 4 4 4 5 4 4 4 5 6 7 6 6 7 6 5 5 4 4 6 7 7 6 4 4 4 4 3 4 4 4 4 5 7 8 10 10 10 11 11 11 11 10 8 7 8 7 6 7 8 8 7 6 5 5 4 2 1 3 5 5 4 2 2 4 5 5 6 6 5 6 8 9 8
Wind_Direction
162 157 154 153 156 157 154 156 155 154 159 160 162 163 167 172 174 171 164 163 163 157 153 148 147 156 156 155 167 169 170 172 165 170 171 150 159 162 156 157 158 162 162 159 155 142 139 136 129 128 123 114 107 111 115 115 121 123 113 108 107 96 79 77 114 123 127 114 101 110 111 111 124 110 124 148 179 158 81 75 85 64 40 40 45
164 157 155 155 156 158 157 158 159 161 161 161 166 168 175 180 177 171 164 163 162 158 156 153 155 163 162 165 171 163 164 173 171 174 175 161 160 157 157 158 154 155 157 158 153 136 134 132 127 127 124 115 109 115 117 116 124 126 117 114 108 93 85 100 142 142 140 140 128 127 141 157 153 150 174 169 183 216 152 100 77 42 37 40 36
166 159 156 158 158 160 162 162 164 169 165 163 169 173 179 182 176 169 161 160 161 163 165 160 163 169 167 172 174 163 162 171 173 170 169 165 159 158 158 155 152 150 148 150 149 138 134 131 130 127 123 115 110 115 115 118 128 127 124 120 112 104 93 93 129 148 146 152 150 144 146 149 138 156 189 153 127 144 136 118 76 28 34 37 23
167 164 160 160 160 162 165 167 169 172 169 169 175 176 178 178 175 169 162 161 163 168 169 164 168 172 170 176 180 171 163 164 168 168 168 166 165 162 157 154 152 150 148 148 147 146 141 137 136 129 125 121 115 119 119 116 120 122 123 115 110 114 108 97 100 143 155 165 164 145 132 119 103 142 148 123 113 118 125 122 94 20 15 9 3
167 168 165 162 162 163 167 171 173 173 171 173 179 179 177 177 176 172 166 165 167 172 170 166 173 175 172 176 180 176 164 159 161 163 162 158 164 162 155 158 154 152 155 152 147 147 149 144 134 131 134 128 120 124 123 117 119 121 118 112 116 115 111 109 107 133 153 170 176 162 149 127 111 140 145 124 111 121 138 147 146 30 0 354 350
168 172 169 166 165 165 168 173 175 174 173 176 179 179 179 181 180 175 172 170 174 178 173 171 174 173 174 174 174 173 165 159 160 162 158 153 160 158 158 164 154 155 162 153 149 150 151 150 138 139 142 135 131 132 129 124 121 124 123 124 131 123 117 123 118 122 133 134 135 134 129 116 117 143 159 152 126 122 143 163 167 302 359 12 359
172 177 172 169 167 167 171 174 178 178 178 179 177 179 184 184 181 178 173 172 178 181 178 177 173 169 172 168 165 166 162 158 159 167 166 160 159 152 161 165 152 160 173 160 157 159 158 154 149 149 146 144 145 140 139 134 122 128 141 133 139 141 137 139 134 126 127 130 126 92 103 94 77 120 158 174 180 151 158 163 173 251 339 1 343
176 181 176 174 171 172 174 175 180 181 180 181 178 182 191 187 182 182 176 174 180 182 182 183 176 169 166 164 163 161 159 157 160 168 168 164 164 161 167 165 158 170 176 168 162 166 170 163 157 154 150 154 150 141 144 145 138 142 144 130 144 160 161 161 161 147 130 147 174 188 167 146 89 115 171 195 271 261 210 205 212 271 329 324 303
179 183 179 178 175 175 176 176 179 180 181 183 181 186 195 192 186 184 180 178 179 180 182 184 181 177 170 168 168 163 163 168 170 169 165 169 176 175 171 165 170 177 171 171 170 168 176 171 164 158 158 164 162 158 154 150 163 154 142 153 158 165 172 173 174 167 148 159 180 181 182 196 201 234 247 216 245 276 235 242 267 285 302 286 256
180 185 183 181 178 175 176 177 179 182 182 182 185 191 197 195 188 187 186 181 178 178 180 181 182 184 179 174 173 168 169 178 181 175 169 177 184 178 171 169 178 181 170 174 179 171 172 172 172 169 168 167 168 174 158 147 177 165 153 174 175 172 180 180 179 173 156 150 175 196 203 214 218 228 230 223 245 244 223 272 302 298 297 307 272
181 184 185 182 179 176 177 179 181 183 182 181 188 195 198 198 190 187 189 185 179 179 180 180 180 184 184 179 177 174 173 177 181 179 174 178 182 178 177 177 180 183 178 178 181 176 171 172 177 178 176 167 166 176 172 159 167 173 176 177 177 183 188 193 192 180 159 154 189 224 219 232 228 225 230 240 258 250 234 269 301 305 303 322 320
183 184 187 182 178 178 177 180 183 184 183 182 189 196 198 199 192 186 189 190 182 180 182 181 179 184 186 182 180 179 178 180 180 180 178 179 182 181 180 180 180 182 182 180 182 181 174 176 180 182 185 182 179 188 194 188 179 188 193 180 184 193 187 195 202 198 182 176 236 277 278 279 251 241 247 244 250 260 263 271 282 287 292 311 318
186 187 191 183 178 179 178 180 186 186 182 182 189 195 197 198 194 187 189 192 187 182 184 184 182 184 187 184 184 183 182 183 183 182 184 188 191 190 188 187 184 181 181 180 183 180 170 177 191 193 198 196 196 203 201 198 199 203 204 190 191 200 198 195 198 206 197 180 247 268 284 306 274 254 258 248 243 254 262 269 274 271 273 286 297
188 190 194 186 180 182 180 181 189 187 181 184 189 194 198 199 197 191 191 194 191 185 186 189 187 185 186 188 189 189 184 180 180 180 183 188 190 191 192 189 184 184 186 180 179 179 171 177 197 204 216 206 200 209 207 209 212 207 211 209 195 196 207 200 198 206 193 178 236 263 272 295 278 259 262 248 238 247 256 262 261 262 269 277 278
190 193 197 192 184 184 183 183 189 187 182 186 192 195 199 201 198 193 191 194 191 186 188 193 193 188 187 190 189 192 190 181 180 179 177 181 182 183 183 180 184 191 191 183 178 185 184 187 197 197 205 205 201 207 209 211 215 212 217 227 215 215 217 204 201 200 185 183 216 262 274 275 262 268 276 250 243 250 253 256 259 269 285 290 289
194 193 197 195 188 186 186 184 188 189 182 186 193 197 202 202 198 193 191 195 193 188 190 194 195 192 189 190 188 190 189 182 183 180 171 173 177 181 180 178 182 184 185 189 187 187 190 192 196 189 188 200 205 209 208 205 213 219 224 229 225 227 224 207 207 208 195 191 211 244 267 269 256 258 266 257 249 249 252 261 269 285 301 302 303
198 196 197 195 190 190 190 186 189 189 183 188 196 200 203 202 199 194 192 196 196 191 191 193 194 192 190 191 188 187 186 183 186 181 170 172 176 179 186 187 186 180 184 201 204 194 198 203 202 190 179 188 201 207 211 209 209 213 216 221 221 224 226 218 219 219 201 191 219 237 242 255 265 270 271 262 251 255 269 281 287 295 301 302 306
200 198 196 193 191 193 193 189 191 191 187 191 198 200 202 204 202 197 193 196 196 193 192 193 195 195 192 192 190 188 186 185 188 182 173 175 177 180 194 197 193 195 207 218 216 205 203 208 209 198 183 186 199 205 213 215 210 211 211 210 214 223 237 240 236 225 204 197 228 243 228 241 265 273 274 273 271 277 291 304 299 292 292 301 309
198 191 191 192 191 193 194 191 189 189 190 195 200 201 202 203 202 198 196 197 196 194 194 193 195 197 195 194 194 190 186 187 190 187 181 183 186 190 201 202 196 210 225 221 211 207 207 205 207 210 202 201 206 207 217 221 217 221 222 213 215 226 242 251 249 233 209 201 222 245 237 242 254 258 265 274 269 273 285 291 286 283 286 302 311
198 186 184 188 188 189 192 191 188 187 191 196 199 200 200 200 201 200 199 197 195 196 197 195 195 197 198 197 196 194 189 189 191 191 191 194 196 197 201 202 201 214 225 217 207 207 207 204 208 215 210 211 215 210 214 221 219 222 226 224 223 224 232 243 248 234 213 207 226 246 243 242 246 246 249 252 248 260 273 272 275 283 287 295 301
192 189 185 180 182 184 182 181 183 185 189 193 196 199 197 197 200 201 199 196 194 196 198 199 198 198 201 201 199 197 194 191 189 192 197 202 203 200 194 196 204 217 223 217 216 219 215 208 209 213 209 211 222 216 208 208 212 218 226 234 237 236 240 247 250 241 226 223 235 242 241 244 245 243 245 245 245 259 271 268 269 282 286 288 295
189 193 191 178 176 182 179 177 180 184 186 183 185 191 192 193 198 200 200 196 193 195 198 201 200 196 201 208 207 203 198 193 193 201 207 205 204 199 187 191 211 230 236 229 224 230 233 230 231 231 233 237 240 234 226 215 215 221 224 235 246 246 243 248 259 260 248 242 243 245 251 255 248 242 244 240 242 260 275 274 271 279 283 281 289
192 189 192 187 178 175 176 180 186 189 188 180 177 180 182 188 195 197 198 196 192 195 198 203 203 197 200 209 212 209 203 198 195 201 209 207 202 198 188 194 216 228 234 236 237 243 239 236 242 245 246 254 256 249 246 241 239 237 228 229 242 246 240 247 264 267 257 250 248 252 262 260 239 237 249 247 248 260 275 277 271 272 275 272 284
182 175 184 189 185 177 175 181 186 189 189 182 178 179 181 187 193 194 196 194 192 197 201 208 211 203 201 209 212 208 206 203 198 199 206 204 199 200 198 201 213 220 227 234 237 238 230 229 243 250 244 250 258 257 255 257 258 252 242 235 241 248 250 253 262 262 255 259 259 262 268 257 233 244 261 265 261 261 269 275 269 263 267 279 294
181 180 180 183 186 186 184 183 184 188 190 186 184 185 186 188 190 190 191 191 193 199 204 210 211 204 203 208 207 204 207 206 201 202 208 205 199 203 210 213 213 212 219 228 230 234 235 233 242 249 247 247 252 256 257 258 260 257 253 252 251 250 251 251 256 258 255 255 257 263 267 258 249 249 252 258 263 266 271 271 272 273 278 294 303
181 184 184 184 186 187 188 187 185 187 191 190 190 190 190 190 191 192 191 191 194 199 200 202 204 202 204 209 209 209 211 209 204 201 202 203 201 205 216 229 232 223 218 223 229 240 250 246 246 254 257 254 253 255 254 255 256 251 250 258 257 254 254 253 255 259 261 259 256 264 266 257 255 254 248 247 252 262 277 274 269 276 282 283 284
175 180 182 184 184 182 183 184 184 188 190 191 192 194 193 193 194 197 196 194 197 198 194 194 199 202 206 212 216 217 216 216 211 203 200 200 199 200 207 219 230 232 229 226 231 241 249 249 255 265 269 263 258 258 258 258 255 247 244 250 254 257 258 257 257 259 261 259 255 261 264 256 257 259 250 250 251 255 270 270 253 261 272 276 280
162 173 176 177 178 179 181 180 180 185 189 191 194 195 195 196 197 201 203 201 202 203 201 200 204 209 213 216 219 218 218 220 214 207 207 207 201 198 202 206 209 213 216 220 227 239 250 253 257 268 277 276 263 254 251 252 252 248 246 247 249 255 259 260 263 261 256 251 248 256 262 261 264 260 246 247 250 250 255 253 254 268 280 286 289
137 150 155 159 162 168 177 179 178 180 184 187 191 192 192 193 197 200 200 201 203 207 208 207 207 210 213 213 209 207 212 218 218 217 221 222 215 207 205 208 207 201 202 210 217 226 238 245 249 258 269 272 261 253 251 249 247 249 253 252 249 251 255 258 263 264 265 264 257 256 261 264 269 264 252 249 247 250 260 261 263 273 284 290 291
143 136 132 142 147 146 156 167 171 175 179 181 183 184 185 186 189 191 192 195 200 202 204 206 207 208 211 210 206 202 202 205 210 216 223 229 230 223 214 214 214 207 205 209 212 217 223 226 229 239 246 249 250 255 258 253 243 242 249 253 251 251 254 260 266 273 277 278 271 266 271 274 269 261 261 260 250 242 250 259 267 275 282 286 286
166 154 143 147 146 136 136 148 154 157 166 172 174 176 180 182 183 185 189 197 203 204 203 205 208 211 214 218 216 210 207 208 209 212 217 224 231 233 226 220 219 217 215 215 215 217 221 224 229 234 241 248 248 248 252 249 239 236 240 242 248 253 257 262 266 267 273 277 275 274 279 279 270 264 267 270 260 242 237 249 262 273 278 277 276
153 153 150 152 154 153 155 161 164 163 168 174 174 176 181 183 182 183 189 197 203 206 207 207 209 211 213 217 218 214 213 216 218 219 223 228 233 237 235 227 225 226 225 224 226 228 228 228 231 234 240 249 247 245 249 249 241 240 241 237 240 249 257 260 256 251 256 266 274 277 278 279 281 281 278 276 266 247 238 244 256 269 275 276 280
146 148 148 153 160 166 170 177 184 187 189 189 188 193 196 194 193 195 198 204 213 216 213 208 208 213 217 219 219 218 216 219 221 222 225 230 233 236 238 236 233 231 229 229 231 235 236 236 236 238 242 247 249 250 252 246 238 237 237 234 237 245 254 259 261 262 266 270 275 279 283 287 290 285 278 275 270 253 245 250 261 270 276 281 287
137 140 139 142 146 148 155 167 173 177 187 196 201 209 215 214 217 224 227 232 244 249 241 229 220 220 224 224 224 225 224 224 226 225 226 228 231 234 238 240 241 239 237 235 234 236 239 239 238 241 245 248 250 253 253 246 239 236 234 234 238 244 251 258 263 268 273 276 278 280 280 281 283 282 276 270 266 256 251 258 265 269 273 281 288
126 129 129 134 140 139 140 150 159 164 174 187 196 204 213 219 225 232 237 241 244 243 239 235 233 232 234 234 234 235 234 233 234 234 235 235 236 238 241 242 245 245 244 243 241 240 241 240 239 241 245 248 250 252 254 253 247 240 235 236 239 243 249 255 260 267 273 277 278 277 277 276 277 280 276 266 258 254 254 259 264 266 269 278 287
136 136 135 138 143 144 145 157 176 188 192 197 201 206 214 223 225 229 237 240 241 240 236 234 233 233 235 236 236 237 237 238 239 239 240 242 242 243 244 245 247 249 250 250 249 247 247 246 245 244 245 247 248 251 254 253 248 243 240 241 242 244 248 254 259 266 271 275 277 276 275 276 277 278 272 259 252 254 257 262 265 266 270 279 284
138 141 143 143 147 155 163 170 175 182 193 201 204 207 213 222 229 233 237 237 238 241 243 240 236 233 232 233 233 234 236 237 237 237 239 243 247 250 250 250 251 253 254 253 252 251 252 252 250 248 247 247 247 249 251 249 247 246 245 246 245 246 250 255 259 265 270 274 276 274 273 275 276 272 266 260 259 260 261 264 267 268 272 277 277
128 134 135 133 137 140 140 143 143 142 153 168 177 187 195 203 212 219 225 228 230 232 236 238 237 235 234 232 231 232 235 235 237 240 244 249 255 258 258 256 255 255 254 252 252 252 252 252 250 247 246 247 247 249 249 247 246 246 243 243 246 250 253 257 261 267 272 274 273 271 270 269 267 263 261 261 261 262 264 267 269 272 273 274 275
118 120 121 122 126 130 131 134 136 135 138 145 153 160 165 168 172 177 187 196 199 203 210 218 222 226 230 230 230 232 233 233 237 243 248 251 254 255 255 256 256 256 254 252 253 254 254 254 251 247 245 244 243 243 244 243 242 240 236 237 246 253 255 259 264 268 271 271 268 266 265 264 263 262 261 261 262 265 271 274 275 277 275 274 274
118 114 113 115 115 113 112 111 113 119 125 128 133 137 137 134 131 131 141 150 155 164 176 186 193 201 210 221 228 231 232 230 226 223 224 227 230 234 241 247 253 256 259 260 262 266 266 261 254 250 246 240 236 236 239 241 239 234 231 236 247 253 254 257 263 266 268 268 264 261 261 262 262 263 263 265 267 269 274 277 279 278 276 274 274
116 116 113 114 114 111 106 102 99 104 108 113 124 129 125 123 125 127 131 131 132 142 151 155 159 160 160 175 191 199 205 201 184 174 173 171 174 194 219 231 236 248 274 289 281 294 316 259 236 233 229 229 232 236 238 237 235 229 225 230 239 246 249 254 259 261 262 263 264 265 264 262 263 265 266 268 270 272 275 278 278 279 280 279 277
108 108 105 105 107 104 104 109 115 117 113 112 115 117 117 122 127 127 126 126 124 125 127 129 135 141 141 137 133 134 140 145 155 167 167 152 136 124 98 87 92 93 65 78 100 86 71 74 85 116 175 206 221 227 223 218 217 217 217 221 231 241 249 253 255 252 249 251 257 261 264 264 264 264 266 268 270 271 272 274 278 280 280 278 277
117 108 99 99 102 104 106 114 123 129 131 130 126 122 119 119 118 116 116 119 119 118 118 116 114 117 121 123 122 120 121 126 133 141 152 152 141 83 77 87 91 92 91 92 90 76 68 69 70 76 101 153 183 196 202 200 200 207 216 226 234 239 243 247 246 241 237 240 245 249 256 265 267 267 269 271 270 268 266 268 273 273 271 273 276
119 111 111 114 120 125 125 124 127 131 135 135 130 126 123 120 117 116 117 118 117 117 117 111 104 100 100 106 111 111 110 114 113 106 100 87 63 54 74 100 108 108 106 101 87 74 74 73 64 60 68 85 111 144 172 178 181 189 201 214 222 223 226 231 233 232 232 236 242 248 256 267 275 281 286 286 280 275 270 267 267 267 268 274 279
126 123 130 138 141 138 128 121 119 119 120 120 115 111 113 115 114 115 120 119 112 108 105 100 100 100 98 99 103 105 104 105 103 104 107 99 88 86 94 108 123 127 122 112 97 92 106 109 84 63 58 59 61 67 101 135 144 148 153 166 187 202 213 221 224 229 236 242 250 262 275 285 290 294 297 297 292 287 281 276 274 272 270 272 283
143 137 137 141 141 129 119 117 117 117 119 119 116 113 112 110 108 108 110 107 102 100 97 91 89 92 94 97 99 96 92 94 102 113 121 109 97 119 135 122 129 139 141 135 119 110 116 124 119 98 69 60 62 66 115 138 138 133 131 145 180 203 220 231 233 238 247 254 260 270 280 286 291 294 297 300 312 344 344 308 278 233 111 36 14
149 138 136 144 142 124 117 119 117 119 124 124 124 127 126 121 119 119 118 115 110 103 94 88 87 90 93 95 92 85 83 85 90 103 115 107 62 177 168 169 176 170 163 160 152 136 127 127 129 121 37 22 39 29 136 141 144 135 104 175 218 224 233 239 241 245 252 256 261 268 274 277 277 274 239 110 91 73 71 74 72 65 46 26 10
144 135 146 161 159 133 132 131 116 110 122 135 143 144 138 131 128 130 134 131 119 101 83 76 84 91 93 94 97 104 107 92 65 60 97 105 40 99 135 160 202 210 203 197 188 180 175 170 167 183 266 283 269 262 251 175 152 157 320 296 272 259 250 247 248 250 253 255 254 251 246 223 181 153 135 123 106 108 125 116 88 50 16 1 306
159 161 172 181 178 151 148 145 123 113 121 134 139 132 124 122 124 131 140 136 120 107 98 98 106 112 125 139 147 164 171 163 163 188 217 243 269 306 13 26 277 216 219 218 205 200 204 209 213 226 244 258 267 261 249 244 248 262 298 307 299 289 279 271 265 262 259 259 253 229 201 189 176 153 134 139 142 135 145 148 142 146 164 178 188
164 170 181 192 198 183 164 152 138 130 126 127 131 127 121 117 117 124 132 132 129 131 145 170 171 166 181 193 186 183 198 216 232 234 227 238 257 274 283 290 296 286 267 250 229 218 217 221 231 247 256 264 274 271 262 267 279 278 293 309 303 297 297 294 289 288 283 272 252 212 196 196 188 160 157 220 224 203 186 182 175 182 206 222 227
180 188 193 202 208 198 179 165 156 147 134 131 142 146 131 119 114 115 124 139 148 149 157 179 195 205 221 240 254 238 217 223 242 257 255 247 254 266 278 293 306 310 295 268 248 240 238 240 248 258 261 264 272 277 277 283 289 292 300 303 298 298 301 299 296 296 293 282 243 191 183 175 160 160 232 245 242 242 237 229 226 232 237 242 248
Height
1555 1556 1556 1558 1560 1562 1564 1566 1568 1570 1572 1573 1574 1575 1576 1577 1578 1579 1580 1581 1583 1584 1585 1586 1588 1589 1590 1591 1592 1593 1594 1595 1596 1596 1597 1597 1598 1599 1600 1601 1602 1602 1603 1604 1604 1605 1606 1606 1606 1606 1607 1607 1607 1608 1608 1608 1609 1609 1609 1609 1609 1609 1609 1609 1610 1610 1611 1611 1611 1611 1611 1611 1611 1611 1611 1611 1612 1612 1612 1612 1612 1612 1612 1611 1611
1554 1556 1556 1558 1560 1562 1564 1566 1567 1569 1571 1573 1574 1575 1577 1577 1578 1579 1580 1582 1583 1584 1585 1586 1588 1589 1590 1591 1592 1593 1594 1595 1596 1597 1597 1597 1598 1599 1600 1601 1602 1603 1603 1604 1605 1605 1606 1606 1606 1607 1607 1608 1608 1608 1609 1609 1609 1609 1610 1610 1609 1609 1609 1610 1610 1611 1611 1611 1611 1611 1611 1611 1611 1611 1611 1612 1612 1612 1612 1612 1612 1612 1612 1612 1611
1553 1555 1556 1557 1559 1562 1564 1565 1567 1568 1570 1572 1574 1575 1576 1577 1579 1580 1581 1582 1583 1584 1585 1586 1588 1589 1591 1591 1592 1593 1594 1596 1597 1597 1597 1598 1599 1600 1600 1601 1602 1603 1603 1604 1605 1605 1606 1606 1607 1607 1608 1608 1609 1609 1609 1609 1610 1610 1610 1610 1610 1610 1610 1610 1611 1611 1611 1611 1611 1611 1611 1612 1611 1611 1611 1612 1612 1612 1612 1612 1612 1612 1612 1612 1611
1552 1554 1555 1557 1559 1561 1563 1565 1566 1567 1570 1572 1573 1574 1576 1577 1578 1580 1581 1583 1583 1584 1586 1587 1588 1589 1591 1592 1592 1593 1594 1596 1597 1597 1598 1598 1599 1600 1601 1602 1602 1603 1603 1604 1605 1606 1606 1606 1607 1608 1608 1608 1609 1609 1610 1610 1610 1610 1611 1611 1611 1611 1610 1610 1611 1612 1612 1612 1612 1612 1612 1612 1612 1611 1611 1612 1612 1611 1612 1612 1612 1612 1612 1612 1611
1551 1554 1555 1556 1558 1560 1563 1564 1565 1567 1569 1570 1572 1573 1575 1576 1578 1579 1581 1582 1583 1584 1586 1587 1588 1589 1590 1592 1592 1593 1595 1596 1597 1597 1598 1599 1600 1601 1601 1602 1603 1603 1604 1604 1605 1606 1606 1606 1607 1608 1608 1609 1609 1610 1610 1610 1610 1611 1611 1611 1611 1611 1611 1611 1611 1611 1612 1612 1612 1612 1612 1612 1612 1611 1611 1612 1612 1612 1612 1612 1612 1612 1612 1612 1611
1550 1553 1554 1555 1557 1559 1562 1564 1565 1567 1568 1570 1571 1573 1574 1575 1577 1579 1580 1582 1583 1584 1586 1587 1588 1589 1590 1591 1592 1593 1594 1595 1596 1597 1598 1599 1600 1601 1602 1602 1603 1604 1604 1605 1605 1606 1607 1607 1607 1608 1608 1609 1610 1610 1610 1610 1611 1611 1611 1611 1612 1612 1611 1611 1611 1611 1612 1612 1613 1613 1613 1612 1612 1612 1612 1612 1612 1612 1612 1612 1612 1612 1612 1612 1611
1549 1552 1553 1554 1556 1558 1560 1563 1564 1566 1568 1569 1571 1572 1573 1575 1576 1578 1580 1581 1583 1584 1585 1587 1588 1589 1590 1591 1592 1593 1594 1595 1596 1597 1598 1599 1600 1601 1602 1602 1603 1604 1604 1605 1605 1606 1606 1607 1607 1608 1608 1609 1609 1610 1610 1610 1611 1611 1611 1612 1612 1612 1612 1612 1612 1612 1612 1612 1613 1613 1613 1613 1612 1612 1612 1612 1612 1612 1612 1612 1612 1611 1611 1611 1611
1547 1550 1552 1553 1555 1556 1559 1561 1563 1566 1568 1569 1571 1572 1573 1574 1576 1577 1579 1581 1582 1584 1585 1586 1588 1589 1590 1591 1592 1593 1594 1595 1596 1597 1598 1599 1599 1600 1601 1602 1603 1603 1604 1605 1605 1606 1606 1607 1607 1608 1609 1609 1609 1610 1610 1610 1611 1611 1611 1612 1612 1612 1612 1612 1612 1612 1612 1613 1613 1613 1613 1613 1613 1612 1612 1612 1612 1612 1612 1612 1612 1611 1611 1611 1611
1545 1548 1551 1552 1553 1556 1558 1560 1563 1565 1567 1569 1570 1571 1572 1574 1575 1577 1579 1580 1582 1583 1585 1586 1587 1589 1589 1590 1592 1593 1594 1595 1596 1597 1598 1598 1599 1600 1601 1601 1602 1603 1604 1605 1605 1606 1607 1607 1608 1608 1609 1609 1610 1610 1610 1610 1611 1611 1611 1611 1612 1612 1613 1613 1613 1613 1613 1613 1613 1613 1613 1613 1612 1612 1612 1612 1612 1612 1612 1612 1611 1611 1611 1611 1610
1544 1547 1549 1551 1552 1555 1557 1560 1563 1564 1566 1568 1570 1570 1572 1573 1575 1576 1578 1580 1581 1583 1584 1585 1587 1588 1589 1590 1591 1592 1593 1594 1595 1597 1598 1598 1599 1600 1600 1601 1602 1603 1604 1604 1605 1606 1606 1607 1608 1608 1609 1609 1610 1610 1611 1611 1611 1611 1611 1612 1612 1612 1613 1613 1613 1613 1613 1613 1613 1613 1612 1613 1612 1612 1612 1612 1612 1611 1611 1611 1611 1610 1610 1610 1610
1542 1545 1548 1550 1551 1553 1556 1559 1562 1563 1565 1567 1569 1570 1571 1573 1574 1576 1577 1579 1580 1582 1584 1585 1586 1587 1588 1590 1590 1591 1592 1593 1595 1596 1597 1598 1599 1600 1600 1601 1602 1603 1603 1604 1605 1605 1606 1607 1607 1608 1608 1609 1610 1610 1611 1611 1611 1611 1611 1612 1612 1612 1613 1613 1613 1613 1613 1613 1613 1613 1612 1612 1612 1612 1612 1612 1612 1611 1610 1611 1611 1610 1610 1610 1610
1540 1543 1546 1548 1550 1552 1554 1557 1560 1562 1564 1566 1567 1568 1570 1572 1574 1575 1576 1578 1580 1581 1583 1585 1586 1587 1588 1589 1590 1591 1592 1593 1594 1595 1597 1598 1599 1600 1600 1601 1602 1603 1603 1604 1604 1605 1605 1606 1607 1607 1608 1609 1609 1610 1610 1611 1611 1611 1612 1612 1612 1612 1612 1612 1613 1613 1613 1613 1613 1613 1613 1612 1613 1613 1612 1612 1612 1611 1611 1610 1610 1610 1610 1609 1609
1538 1541 1544 1545 1547 1549 1552 1555 1558 1560 1562 1564 1565 1566 1569 1571 1573 1574 1576 1577 1579 1581 1582 1584 1585 1586 1588 1589 1590 1591 1592 1593 1594 1595 1596 1597 1599 1600 1600 1601 1601 1602 1603 1603 1604 1604 1605 1606 1606 1607 1608 1608 1609 1609 1610 1611 1611 1611 1612 1612 1612 1612 1612 1612 1612 1613 1613 1613 1613 1613 1613 1612 1612 1612 1612 1612 1611 1611 1611 1610 1610 1610 1609 1609 1608
1537 1539 1542 1543 1545 1547 1550 1554 1557 1558 1560 1562 1563 1565 1567 1569 1571 1573 1575 1576 1578 1580 1582 1583 1585 1586 1587 1589 1590 1591 1592 1593 1594 1595 1596 1597 1598 1599 1600 1600 1601 1602 1603 1603 1603 1604 1605 1605 1606 1607 1607 1608 1608 1609 1610 1610 1610 1611 1611 1611 1611 1611 1612 1612 1612 1612 1613 1613 1613 1613 1612 1612 1612 1612 1612 1611 1611 1611 1611 1610 1610 1610 1609 1609 1608
1535 1537 1540 1542 1544 1546 1549 1552 1555 1557 1558 1560 1561 1563 1566 1568 1570 1572 1574 1575 1577 1579 1581 1582 1584 1585 1586 1588 1589 1591 1592 1593 1594 1595 1596 1597 1598 1599 1599 1599 1600 1601 1602 1603 1603 1604 1605 1605 1606 1606 1607 1607 1608 1608 1609 1609 1610 1610 1611 1611 1611 1611 1611 1612 1612 1612 1612 1612 1612 1612 1612 1612 1612 1612 1612 1611 1611 1611 1610 1610 1610 1609 1609 1608 1608
1533 1535 1537 1540 1543 1545 1548 1550 1554 1556 1557 1559 1560 1561 1564 1566 1569 1571 1572 1574 1576 1578 1580 1581 1583 1585 1586 1587 1588 1590 1591 1593 1594 1595 1595 1596 1597 1598 1599 1599 1600 1601 1602 1602 1603 1604 1604 1605 1606 1606 1606 1607 1607 1608 1608 1609 1609 1610 1610 1611 1611 1611 1611 1611 1611 1612 1612 1612 1612 1612 1612 1611 1612 1611 1611 1611 1611 1610 1610 1610 1610 1609 1609 1608 1607
1531 1533 1536 1539 1541 1544 1547 1549 1552 1554 1556 1558 1558 1560 1563 1565 1567 1569 1571 1573 1575 1577 1579 1580 1582 1584 1585 1586 1587 1589 1590 1592 1593 1594 1594 1595 1597 1598 1598 1599 1600 1601 1602 1602 1603 1603 1604 1605 1605 1606 1606 1607 1607 1608 1608 1609 1609 1609 1610 1610 1610 1610 1610 1611 1611 1611 1612 1612 1612 1612 1612 1611 1611 1611 1611 1611 1610 1610 1610 1610 1610 1609 1609 1608 1607
1529 1531 1534 1537 1540 1543 1546 1548 1551 1553 1555 1557 1558 1560 1562 1564 1566 1568 1570 1572 1574 1576 1578 1580 1581 1582 1584 1585 1587 1588 1589 1591 1592 1593 1594 1595 1596 1597 1598 1599 1599 1600 1601 1602 1602 1603 1604 1604 1605 1605 1606 1606 1607 1607 1608 1608 1609 1609 1609 1609 1610 1610 1610 1610 1610 1611 1611 1611 1611 1612 1612 1611 1611 1611 1610 1610 1610 1610 1610 1610 1609 1609 1609 1609 1608
1526 1529 1533 1536 1539 1542 1545 1547 1549 1552 1554 1556 1558 1560 1561 1564 1565 1567 1569 1571 1573 1575 1577 1579 1580 1581 1583 1584 1586 1587 1588 1590 1591 1592 1593 1594 1595 1596 1597 1598 1599 1600 1601 1602 1602 1602 1603 1604 1604 1605 1605 1606 1606 1607 1608 1608 1608 1608 1609 1609 1609 1609 1609 1610 1610 1610 1611 1611 1610 1611 1611 1611 1611 1611 1610 1610 1610 1610 1609 1609 1609 1609 1609 1608 1608
1524 1527 1531 1533 1537 1540 1543 1546 1549 1551 1554 1555 1557 1559 1561 1563 1565 1567 1569 1570 1572 1574 1575 1577 1579 1580 1582 1583 1585 1586 1587 1589 1590 1591 1593 1594 1595 1595 1596 1597 1598 1599 1600 1601 1602 1602 1602 1603 1604 1604 1605 1605 1606 1606 1607 1607 1608 1608 1608 1608 1608 1609 1609 1609 1610 1610 1610 1610 1610 1610 1610 1610 1610 1610 1610 1610 1610 1609 1609 1609 1609 1608 1608 1608 1607
1523 1526 1529 1531 1534 1538 1540 1543 1546 1549 1552 1554 1556 1558 1560 1563 1564 1566 1568 1569 1571 1572 1574 1576 1578 1579 1581 1582 1583 1585 1586 1588 1589 1590 1592 1593 1594 1595 1596 1597 1598 1599 1600 1600 1601 1601 1602 1602 1603 1603 1604 1605 1605 1606 1606 1607 1607 1607 1607 1608 1608 1608 1608 1609 1609 1609 1609 1609 1609 1609 1609 1609 1609 1609 1609 1609 1609 1609 1609 1608 1608 1608 1608 1608 1607
1522 1524 1526 1529 1532 1536 1539 1542 1545 1547 1549 1552 1555 1557 1559 1561 1563 1566 1567 1568 1570 1571 1572 1575 1576 1578 1580 1581 1582 1583 1585 1586 1588 1589 1591 1592 1593 1594 1595 1596 1597 1598 1599 1600 1600 1601 1601 1601 1602 1603 1603 1604 1604 1605 1605 1606 1606 1607 1607 1607 1607 1607 1608 1608 1608 1608 1608 1608 1608 1608 1608 1608 1608 1609 1609 1609 1609 1608 1608 1608 1608 1607 1607 1607 1607
1519 1521 1524 1528 1531 1535 1539 1543 1546 1547 1549 1552 1555 1556 1559 1561 1562 1564 1566 1567 1569 1570 1571 1573 1575 1577 1578 1580 1581 1582 1584 1585 1586 1588 1589 1590 1592 1593 1594 1595 1597 1598 1598 1599 1599 1600 1600 1601 1601 1602 1603 1603 1604 1604 1605 1605 1605 1606 1606 1606 1606 1606 1606 1606 1607 1607 1607 1607 1607 1607 1607 1607 1608 1608 1608 1608 1608 1608 1608 1608 1607 1607 1607 1607 1606
1518 1521 1524 1527 1530 1533 1538 1541 1544 1546 1549 1552 1554 1555 1557 1559 1562 1563 1564 1566 1567 1569 1570 1572 1573 1575 1577 1578 1580 1581 1583 1584 1585 1587 1588 1589 1591 1592 1594 1595 1596 1597 1597 1598 1598 1599 1600 1600 1601 1601 1602 1602 1603 1603 1604 1604 1604 1605 1605 1605 1605 1605 1605 1605 1605 1605 1606 1606 1606 1606 1607 1607 1607 1607 1607 1607 1607 1607 1607 1607 1607 1606 1606 1606 1606
1517 1519 1521 1524 1528 1531 1535 1539 1541 1543 1547 1551 1553 1555 1556 1558 1560 1562 1563 1565 1566 1567 1569 1570 1572 1573 1575 1577 1578 1580 1581 1583 1584 1586 1587 1589 1590 1591 1593 1594 1595 1596 1596 1597 1598 1598 1599 1599 1600 1600 1601 1601 1602 1602 1602 1603 1603 1603 1604 1604 1604 1604 1604 1604 1604 1604 1605 1605 1605 1605 1606 1606 1606 1606 1606 1606 1606 1606 1606 1606 1606 1606 1605 1605 1605
1515 1517 1519 1522 1526 1529 1533 1537 1539 1541 1545 1549 1552 1553 1555 1558 1560 1561 1562 1563 1564 1565 1566 1568 1570 1571 1573 1575 1576 1579 1580 1582 1583 1585 1586 1588 1589 1591 1592 1592 1593 1594 1595 1596 1596 1597 1597 1598 1598 1599 1599 1600 1600 1601 1601 1601 1602 1602 1602 1603 1603 1603 1603 1603 1603 1603 1603 1604 1604 1604 1604 1604 1604 1605 1605 1605 1605 1605 1605 1606 1605 1605 1604 1604 1604
1515 1516 1518 1521 1525 1529 1532 1535 1538 1540 1543 1547 1550 1552 1553 1556 1558 1560 1561 1562 1563 1564 1565 1567 1568 1569 1571 1573 1575 1577 1579 1581 1582 1584 1585 1586 1588 1589 1590 1591 1591 1592 1593 1594 1594 1595 1596 1596 1597 1597 1598 1598 1599 1599 1600 1600 1601 1601 1601 1602 1602 1602 1602 1602 1602 1602 1602 1602 1602 1602 1601 1601 1601 1602 1603 1604 1604 1604 1604 1604 1604 1604 1604 1603 1603
1519 1520 1520 1520 1523 1527 1530 1532 1535 1538 1541 1544 1548 1551 1552 1554 1557 1558 1559 1560 1562 1563 1564 1566 1568 1569 1571 1573 1575 1578 1579 1581 1582 1583 1584 1585 1586 1587 1588 1588 1589 1590 1591 1592 1593 1593 1593 1594 1594 1595 1596 1596 1597 1597 1598 1598 1599 1599 1600 1600 1600 1600 1601 1601 1601 1601 1600 1599 1599 1600 1600 1600 1600 1600 1601 1601 1602 1603 1603 1603 1603 1602 1602 1602 1601
1524 1525 1525 1525 1526 1527 1529 1531 1534 1537 1539 1542 1545 1548 1550 1552 1554 1556 1557 1559 1561 1563 1564 1566 1568 1570 1572 1574 1576 1578 1579 1581 1582 1583 1584 1584 1584 1585 1586 1586 1587 1588 1588 1589 1590 1591 1591 1591 1592 1593 1594 1594 1594 1595 1595 1596 1597 1597 1598 1598 1598 1599 1599 1599 1600 1599 1597 1597 1598 1600 1599 1599 1599 1599 1600 1600 1600 1601 1601 1602 1601 1601 1601 1600 1599
1527 1528 1529 1530 1532 1534 1535 1536 1537 1538 1540 1541 1542 1545 1547 1549 1551 1554 1557 1558 1560 1560 1561 1563 1565 1568 1571 1574 1575 1576 1577 1579 1580 1581 1582 1583 1583 1584 1584 1584 1585 1586 1586 1587 1588 1589 1589 1589 1590 1591 1591 1592 1592 1593 1593 1594 1595 1595 1596 1596 1597 1597 1597 1597 1598 1598 1597 1596 1598 1599 1599 1598 1598 1599 1599 1600 1599 1599 1599 1600 1600 1599 1599 1598 1597
1526 1528 1530 1531 1533 1536 1539 1540 1541 1541 1541 1541 1542 1543 1545 1547 1549 1552 1555 1557 1557 1556 1557 1560 1564 1567 1571 1573 1574 1576 1576 1577 1577 1578 1580 1581 1582 1582 1582 1583 1583 1584 1585 1585 1586 1586 1586 1587 1588 1588 1589 1589 1590 1591 1591 1592 1592 1593 1593 1594 1595 1595 1596 1596 1596 1596 1596 1596 1597 1597 1597 1598 1597 1597 1598 1598 1598 1598 1597 1598 1598 1597 1597 1597 1596
1524 1527 1529 1531 1532 1535 1538 1540 1542 1543 1544 1544 1545 1546 1547 1547 1548 1550 1553 1555 1556 1555 1556 1559 1563 1565 1567 1570 1572 1574 1574 1575 1575 1576 1577 1577 1578 1579 1580 1581 1581 1582 1582 1583 1584 1584 1584 1585 1585 1586 1586 1587 1587 1588 1589 1590 1590 1590 1591 1592 1593 1594 1594 1594 1594 1594 1594 1595 1595 1596 1596 1596 1596 1596 1596 1595 1595 1596 1596 1596 1596 1596 1596 1595 1595
1523 1525 1527 1529 1531 1533 1536 1538 1540 1543 1546 1546 1547 1548 1548 1548 1549 1550 1551 1553 1554 1555 1556 1560 1562 1564 1565 1568 1570 1571 1571 1572 1572 1573 1574 1574 1575 1577 1577 1578 1578 1578 1579 1580 1581 1581 1581 1582 1582 1583 1583 1584 1585 1586 1586 1587 1588 1588 1589 1590 1591 1591 1591 1591 1591 1592 1593 1593 1593 1594 1594 1594 1594 1593 1593 1593 1593 1593 1593 1594 1594 1594 1594 1594 1593
1523 1524 1526 1528 1530 1533 1535 1536 1539 1542 1544 1545 1546 1547 1548 1548 1549 1550 1551 1553 1554 1555 1557 1559 1562 1564 1564 1565 1567 1567 1568 1569 1569 1570 1571 1571 1572 1574 1574 1574 1575 1575 1576 1577 1577 1578 1579 1579 1579 1580 1581 1581 1582 1583 1584 1585 1585 1586 1587 1588 1589 1589 1589 1589 1589 1590 1590 1591 1591 1591 1591 1592 1591 1591 1591 1591 1591 1591 1592 1592 1592 1592 1592 1592 1592
1526 1525 1526 1528 1529 1532 1535 1537 1539 1541 1542 1543 1544 1545 1546 1547 1548 1549 1551 1552 1553 1554 1555 1557 1559 1561 1561 1562 1563 1564 1565 1566 1567 1568 1568 1568 1569 1570 1571 1571 1571 1572 1572 1573 1574 1575 1575 1575 1576 1578 1578 1579 1580 1581 1582 1582 1583 1584 1585 1585 1586 1586 1586 1586 1587 1587 1588 1588 1588 1589 1589 1589 1589 1589 1589 1589 1589 1590 1590 1590 1590 1590 1590 1590 1590
1528 1528 1529 1530 1531 1533 1536 1538 1540 1541 1542 1543 1544 1545 1546 1547 1548 1549 1550 1551 1551 1552 1553 1554 1556 1557 1558 1559 1560 1560 1561 1562 1563 1564 1564 1565 1566 1566 1567 1568 1568 1569 1569 1569 1570 1571 1571 1572 1573 1575 1575 1576 1577 1578 1579 1580 1580 1581 1582 1583 1583 1583 1583 1584 1584 1585 1585 1585 1586 1586 1586 1586 1587 1587 1587 1587 1587 1588 1588 1588 1588 1588 1588 1588 1588
1529 1531 1532 1533 1534 1536 1537 1539 1540 1541 1542 1543 1544 1545 1545 1547 1548 1549 1549 1549 1550 1550 1551 1552 1553 1554 1555 1556 1557 1557 1558 1559 1560 1561 1562 1562 1563 1564 1565 1565 1565 1566 1566 1566 1566 1567 1567 1568 1570 1572 1572 1573 1575 1576 1577 1578 1578 1578 1579 1580 1580 1580 1581 1581 1582 1582 1583 1583 1584 1583 1583 1584 1585 1585 1585 1585 1585 1585 1586 1586 1586 1586 1586 1586 1585
1532 1532 1533 1534 1536 1537 1539 1540 1541 1542 1543 1543 1544 1544 1545 1546 1547 1547 1548 1548 1548 1549 1549 1550 1551 1552 1553 1553 1554 1555 1556 1557 1557 1559 1560 1561 1562 1562 1563 1562 1563 1562 1562 1562 1562 1563 1564 1565 1567 1568 1569 1570 1572 1573 1574 1575 1575 1575 1576 1577 1578 1578 1578 1579 1579 1580 1581 1581 1581 1581 1581 1582 1582 1583 1583 1583 1583 1583 1583 1583 1583 1583 1583 1583 1583
1537 1535 1536 1537 1538 1540 1541 1543 1543 1543 1544 1544 1545 1545 1545 1545 1546 1547 1547 1548 1548 1548 1548 1549 1550 1551 1551 1552 1553 1553 1554 1555 1556 1557 1559 1560 1560 1560 1560 1559 1559 1559 1559 1559 1560 1561 1562 1562 1562 1564 1565 1566 1567 1569 1570 1572 1572 1573 1573 1574 1575 1576 1575 1576 1577 1577 1578 1579 1579 1579 1579 1579 1580 1580 1581 1581 1581 1581 1581 1581 1581 1581 1580 1580 1580
1541 1540 1540 1541 1542 1544 1545 1545 1546 1546 1546 1546 1546 1546 1546 1545 1546 1547 1548 1548 1548 1548 1549 1549 1550 1550 1551 1552 1552 1553 1554 1554 1555 1556 1557 1558 1558 1558 1557 1557 1557 1557 1557 1558 1558 1558 1558 1557 1557 1559 1560 1561 1563 1565 1566 1568 1569 1569 1570 1571 1572 1573 1573 1574 1574 1574 1575 1575 1576 1577 1577 1577 1577 1578 1578 1578 1579 1579 1579 1579 1578 1578 1578 1578 1578
1543 1543 1544 1545 1546 1547 1547 1548 1549 1548 1548 1548 1549 1548 1547 1546 1547 1548 1549 1549 1550 1550 1550 1551 1551 1551 1552 1552 1553 1553 1554 1554 1555 1555 1556 1556 1557 1556 1556 1556 1556 1556 1556 1557 1557 1557 1557 1556 1555 1556 1557 1558 1560 1562 1563 1565 1565 1565 1566 1568 1569 1570 1571 1571 1572 1572 1572 1572 1573 1574 1574 1575 1575 1575 1576 1576 1577 1577 1577 1577 1576 1576 1576 1576 1576
1546 1546 1546 1547 1548 1549 1550 1550 1550 1550 1550 1550 1550 1549 1548 1548 1549 1550 1550 1550 1551 1551 1551 1552 1552 1552 1552 1552 1553 1554 1554 1554 1555 1555 1555 1556 1556 1556 1556 1556 1556 1556 1556 1556 1556 1556 1556 1555 1555 1556 1556 1556 1558 1559 1560 1561 1562 1562 1563 1565 1566 1567 1568 1568 1569 1569 1570 1570 1570 1571 1572 1572 1573 1573 1574 1574 1575 1575 1575 1575 1574 1574 1574 1574 1574
1547 1547 1548 1549 1550 1551 1551 1551 1551 1551 1551 1551 1551 1551 1550 1551 1551 1551 1551 1552 1552 1552 1552 1552 1553 1553 1553 1553 1553 1554 1554 1555 1555 1555 1556 1556 1556 1557 1556 1556 1556 1555 1556 1556 1556 1556 1556 1555 1555 1556 1556 1555 1556 1557 1558 1559 1560 1560 1562 1563 1564 1564 1565 1566 1566 1567 1567 1568 1569 1569 1570 1570 1571 1571 1572 1572 1572 1573 1573 1573 1573 1572 1572 1572 1572
1548 1549 1549 1550 1551 1552 1552 1552 1552 1552 1552 1552 1552 1552 1552 1552 1552 1552 1553 1553 1552 1553 1553 1553 1554 1554 1554 1555 1554 1554 1554 1555 1555 1556 1557 1557 1557 1557 1557 1556 1556 1555 1555 1555 1556 1556 1556 1556 1556 1556 1555 1555 1556 1558 1559 1559 1559 1560 1561 1562 1563 1563 1563 1564 1565 1566 1566 1567 1568 1568 1569 1569 1570 1570 1570 1570 1570 1570 1570 1570 1570 1570 1570 1570 1570
1548 1550 1551 1551 1552 1552 1552 1553 1552 1553 1553 1553 1553 1553 1553 1553 1553 1553 1553 1553 1553 1554 1554 1554 1555 1555 1555 1555 1555 1555 1555 1555 1555 1556 1556 1557 1557 1557 1557 1557 1556 1556 1556 1556 1556 1556 1556 1556 1556 1556 1556 1557 1558 1559 1560 1560 1560 1560 1561 1562 1562 1562 1562 1563 1564 1565 1565 1566 1567 1567 1568 1568 1568 1569 1569 1569 1569 1569 1568 1568 1568 1568 1568 1568 1568
1549 1550 1551 1552 1552 1552 1553 1553 1553 1553 1553 1553 1553 1554 1554 1554 1554 1554 1554 1554 1555 1555 1555 1555 1555 1555 1555 1556 1556 1556 1556 1555 1556 1556 1556 1556 1556 1556 1556 1557 1557 1557 1557 1557 1557 1557 1557 1557 1557 1557 1556 1557 1558 1560 1560 1560 1560 1560 1561 1561 1561 1561 1562 1562 1563 1564 1564 1565 1566 1567 1567 1567 1567 1567 1567 1567 1567 1567 1567 1567 1567 1567 1567 1568 1568
1549 1550 1550 1551 1552 1553 1553 1553 1553 1554 1554 1554 1554 1554 1554 1554 1555 1555 1555 1555 1556 1556 1556 1556 1556 1556 1557 1557 1557 1556 1556 1556 1556 1556 1556 1556 1556 1556 1557 1557 1558 1558 1558 1558 1559 1558 1558 1558 1558 1558 1557 1557 1558 1559 1559 1559 1559 1560 1560 1560 1561 1561 1562 1562 1562 1563 1564 1564 1565 1566 1566 1566 1566 1566 1566 1566 1566 1566 1566 1566 1567 1567 1567 1567 1567
1549 1550 1550 1551 1552 1553 1553 1553 1554 1554 1554 1555 1555 1555 1555 1555 1555 1556 1556 1556 1556 1556 1557 1557 1557 1558 1558 1558 1558 1557 1556 1556 1556 1556 1556 1556 1556 1557 1558 1558 1558 1558 1558 1558 1559 1559 1559 1559 1559 1559 1559 1558 1559 1558 1558 1557 1557 1557 1558 1559 1559 1560 1561 1561 1562 1562 1563 1563 1564 1565 1565 1565 1565 1565 1565 1565 1565 1565 1565 1565 1565 1565 1565 1564 1564
1550 1550 1551 1551 1552 1553 1554 1554 1554 1554 1555 1555 1555 1555 1556 1556 1556 1556 1556 1556 1557 1557 1557 1558 1558 1558 1558 1558 1558 1558 1557 1556 1556 1556 1556 1556 1557 1557 1558 1558 1558 1558 1558 1558 1558 1559 1559 1559 1559 1559 1559 1558 1558 1558 1557 1556 1556 1555 1556 1557 1558 1559 1559 1560 1560 1561 1561 1562 1562 1563 1563 1563 1563 1564 1564 1563 1563 1563 1564 1564 1564 1563 1563 1563 1563
1550 1551 1551 1552 1553 1554 1554 1554 1555 1555 1555 1555 1556 1556 1556 1556 1556 1557 1556 1557 1557 1557 1557 1558 1558 1558 1558 1558 1558 1558 1557 1557 1556 1556 1557 1557 1557 1557 1557 1558 1558 1558 1557 1558 1558 1558 1558 1558 1559 1559 1558 1558 1558 1557 1556 1556 1555 1555 1555 1555 1556 1557 1558 1558 1559 1559 1560 1560 1561 1561 1562 1562 1562 1562 1562 1562 1562 1562 1563 1563 1563 1563 1562 1562 1562
1550 1550 1551 1552 1553 1554 1554 1555 1555 1555 1556 1556 1556 1556 1556 1556 1557 1557 1557 1557 1557 1557 1557 1558 1558 1558 1558 1557 1558 1558 1557 1556 1556 1556 1556 1557 1557 1557 1557 1557 1557 1557 1557 1557 1557 1557 1557 1558 1558 1558 1557 1557 1557 1556 1555 1555 1555 1555 1555 1555 1555 1556 1556 1557 1557 1558 1558 1559 1560 1560 1561 1561 1561 1561 1560 1560 1561 1561 1561 1562 1562 1561 1561 1561 1561